KC8BSD Weather Reports


time (UTC)temp
F
wind
direction
speed
knots
gust
knots
rain 1hr
in
rain 24hr
in
rain mn
in
humidity
%
barometer
mb
20260506195617 53 5 1.7 1.7 0.00 0.00 0.00 46 1014.0
20260506195114 53 56 2.6 4.3 0.00 0.00 0.00 45 1014.0
20260506194611 53 27 1.7 1.7 0.00 0.00 0.00 46 1014.1
20260506194108 53 259 0.9 0.9 0.00 0.00 0.00 45 1014.2
20260506193605 54 247 1.7 2.6 0.00 0.00 0.00 45 1014.2
20260506193103 55 39 2.6 2.6 0.00 0.00 0.00 44 1014.1
20260506192559 53 305 1.7 1.7 0.00 0.00 0.00 47 1014.2
20260506192055 54 20 2.6 2.6 0.00 0.00 0.00 45 1014.2
20260506191552 53 47 1.7 1.7 0.00 0.00 0.00 48 1014.1
20260506191048 53 43 1.7 1.7 0.00 0.00 0.00 46 1014.4
20260506190545 53 276 0.0 0.9 0.00 0.00 0.00 46 1014.3
20260506190042 53 40 0.0 0.9 0.00 0.00 0.00 46 1014.3
20260506185539 53 318 1.7 1.7 0.00 0.00 0.00 48 1014.3
20260506185036 53 321 0.9 0.9 0.00 0.00 0.00 47 1014.2
20260506184533 52 232 0.9 0.9 0.00 0.00 0.00 51 1014.1
20260506184031 51 319 0.9 1.7 0.00 0.00 0.00 48 1014.1
20260506183526 51 260 0.0 0.0 0.00 0.00 0.00 50 1013.9
20260506183023 52 267 0.9 0.9 0.00 0.00 0.00 51 1014.0
20260506182520 52 284 1.7 2.6 0.00 0.00 0.00 48 1014.0
20260506182017 52 261 0.0 0.9 0.00 0.00 0.00 49 1014.1
20260506181515 53 297 1.7 2.6 0.00 0.00 0.00 47 1014.0
20260506181012 53 354 0.9 1.7 0.00 0.00 0.00 48 1014.2
20260506180509 53 14 0.9 1.7 0.00 0.00 0.00 46 1013.9
20260506180006 53 295 0.0 0.9 0.00 0.00 0.00 46 1014.1
20260506175502 52 318 0.9 0.9 0.00 0.00 0.00 48 1014.0
20260506174958 53 59 0.9 2.6 0.00 0.00 0.00 50 1014.2
20260506174456 52 268 1.7 1.7 0.00 0.00 0.00 49 1014.2
20260506173946 53 246 0.9 0.9 0.00 0.00 0.00 51 1014.5
20260506173444 52 46 3.5 4.3 0.00 0.00 0.00 48 1014.4
20260506172941 52 43 1.7 2.6 0.00 0.00 0.00 47 1014.5
20260506172439 52 14 2.6 2.6 0.00 0.00 0.00 48 1014.7
20260506171935 52 256 1.7 2.6 0.00 0.00 0.00 48 1014.6
20260506171432 53 7 2.6 2.6 0.00 0.00 0.00 47 1014.6
20260506170930 53 264 0.0 0.0 0.00 0.00 0.00 53 1014.3
20260506170425 53 258 0.9 1.7 0.00 0.00 0.00 53 1014.3
20260506165919 52 282 0.9 1.7 0.00 0.00 0.00 51 1014.4
20260506165417 53 304 0.0 0.9 0.00 0.00 0.00 55 1014.4
20260506164912 51 28 2.6 2.6 0.00 0.00 0.00 50 1014.4
20260506164409 52 289 0.9 0.9 0.00 0.00 0.00 50 1014.5
20260506163907 50 295 3.5 4.3 0.00 0.00 0.00 49 1014.4
20260506163402 51 55 3.5 5.2 0.00 0.00 0.00 51 1014.4
20260506162856 51 75 2.6 2.6 0.00 0.00 0.00 52 1014.3
20260506162355 51 27 1.7 1.7 0.00 0.00 0.00 51 1014.1
20260506161847 50 324 0.9 0.9 0.00 0.00 0.00 52 1014.5
20260506161344 51 55 2.6 2.6 0.00 0.00 0.00 51 1014.5
20260506160842 51 7 1.7 2.6 0.00 0.00 0.00 53 1014.4
20260506160339 51 238 0.9 1.7 0.00 0.00 0.00 51 1014.3
20260506155837 51 271 1.7 2.6 0.00 0.00 0.00 52 1014.3
20260506155333 51 300 1.7 1.7 0.00 0.00 0.00 52 1014.2
20260506153451 52 72 2.6 5.2 0.00 0.00 0.00 52 1014.0
20260506152948 53 18 2.6 2.6 0.00 0.00 0.00 51 1013.9
20260506152445 52 228 1.7 1.7 0.00 0.00 0.00 53 1014.1
20260506151943 52 34 2.6 2.6 0.00 0.00 0.00 50 1013.9
20260506151440 53 56 2.6 2.6 0.00 0.00 0.00 51 1013.8
20260506150938 52 263 0.0 0.9 0.00 0.00 0.00 55 1013.9
20260506150433 52 136 1.7 1.7 0.00 0.00 0.00 53 1013.9
20260506145931 53 43 0.9 1.7 0.00 0.00 0.00 53 1013.8
20260506145427 54 22 3.5 4.3 0.00 0.00 0.00 50 1013.7
20260506144925 54 228 0.9 1.7 0.00 0.00 0.00 51 1013.9
20260506144421 54 242 2.6 4.3 0.00 0.00 0.00 54 1013.8
20260506143920 53 228 0.9 0.9 0.00 0.00 0.00 57 1013.9
20260506143416 51 277 0.9 0.9 0.00 0.00 0.00 57 1013.8
20260506142914 51 254 0.9 0.9 0.00 0.00 0.00 56 1013.5
20260506142412 51 278 0.9 1.7 0.00 0.00 0.00 59 1013.3
20260506141910 51 289 0.9 1.7 0.00 0.00 0.00 59 1013.6
20260506141408 52 21 2.6 2.6 0.00 0.00 0.00 58 1013.7
20260506140906 51 335 0.9 1.7 0.00 0.00 0.00 61 1013.5
20260506140403 51 187 0.9 0.9 0.00 0.00 0.00 62 1013.4
20260506135900 50 0 2.6 2.6 0.00 0.00 0.00 63 1013.4
20260506135356 50 359 1.7 1.7 0.00 0.00 0.00 63 1013.2
20260506134853 49 249 0.0 0.9 0.00 0.00 0.00 66 1013.3
20260506134349 49 266 0.0 0.0 0.00 0.00 0.00 66 1013.2
20260506133846 49 192 1.7 1.7 0.00 0.00 0.00 66 1013.3
20260506133343 50 306 0.9 1.7 0.00 0.00 0.00 65 1013.1
20260506132839 50 14 0.9 1.7 0.00 0.00 0.00 67 1013.1
20260506132336 51 331 0.9 1.7 0.00 0.00 0.00 66 1013.0
20260506131835 50 36 1.7 1.7 0.00 0.00 0.00 66 1012.7
20260506131330 50 350 2.6 2.6 0.00 0.00 0.00 64 1012.8
20260506130828 50 247 0.9 0.9 0.00 0.00 0.00 66 1012.7
20260506130324 49 206 1.7 1.7 0.00 0.00 0.00 64 1012.5
20260506125822 49 47 0.9 1.7 0.00 0.00 0.00 63 1012.4
20260506125320 48 287 0.9 0.9 0.00 0.00 0.00 63 1012.6
20260506124819 48 40 2.6 2.6 0.00 0.00 0.00 62 1012.6
20260506124315 49 38 1.7 1.7 0.00 0.00 0.00 61 1012.4
20260506123813 48 8 1.7 1.7 0.00 0.00 0.00 63 1012.5
20260506123311 47 357 1.7 2.6 0.00 0.00 0.00 64 1012.3
20260506122808 47 47 2.6 2.6 0.00 0.00 0.00 64 1012.1
20260506122306 47 46 0.0 0.9 0.00 0.00 0.00 65 1012.1
20260506121803 46 282 0.9 0.9 0.00 0.00 0.00 64 1012.1
20260506121259 46 92 1.7 2.6 0.00 0.00 0.00 65 1012.2
20260506120757 46 39 1.7 2.6 0.00 0.00 0.00 64 1012.0
20260506120255 45 252 0.0 0.0 0.00 0.00 0.00 67 1012.0
20260506115752 45 254 0.0 0.0 0.00 0.00 0.00 66 1012.0
20260506115250 45 338 0.9 1.7 0.00 0.00 0.00 65 1011.9
20260506114747 45 299 0.9 0.9 0.00 0.00 0.00 64 1011.8
20260506114245 45 283 1.7 2.6 0.00 0.00 0.00 64 1011.9
20260506113743 45 257 1.7 1.7 0.00 0.00 0.00 64 1011.8
20260506113241 44 253 0.0 0.9 0.00 0.00 0.00 65 1011.4
20260506112737 43 256 0.0 0.0 0.00 0.00 0.00 67 1011.7
20260506112234 42 275 0.0 0.0 0.00 0.00 0.00 67 1011.4
20260506111731 42 290 0.0 0.9 0.00 0.00 0.00 69 1011.5
20260506111230 42 263 0.0 0.0 0.00 0.00 0.00 68 1011.4
20260506110726 42 265 0.0 0.0 0.00 0.00 0.00 68 1011.6
20260506110224 42 288 0.0 0.0 0.00 0.00 0.00 68 1011.3
20260506105720 42 263 0.0 0.0 0.00 0.00 0.00 68 1011.3
20260506105217 42 260 0.0 0.0 0.00 0.00 0.00 67 1011.4
20260506104716 43 259 0.0 0.0 0.00 0.00 0.00 66 1011.1
20260506104213 43 279 0.0 0.0 0.00 0.00 0.00 65 1011.0
20260506103710 43 273 0.0 0.0 0.00 0.00 0.00 65 1011.1
20260506103206 44 311 0.0 0.9 0.00 0.00 0.00 64 1011.0
20260506102705 44 46 0.9 0.9 0.00 0.00 0.00 63 1010.9
20260506102203 44 305 0.9 0.9 0.00 0.00 0.00 63 1010.9
20260506101659 44 268 0.0 0.9 0.00 0.00 0.00 62 1011.2
20260506101155 45 6 0.9 0.9 0.00 0.00 0.00 61 1011.1
20260506100654 45 270 0.0 0.0 0.00 0.00 0.00 61 1010.9
20260506100151 45 254 0.0 0.0 0.00 0.00 0.00 61 1011.1
20260506095650 45 290 0.9 0.9 0.00 0.00 0.00 60 1011.0
20260506095146 45 351 0.9 1.7 0.00 0.00 0.00 60 1010.8
20260506094644 45 269 0.9 0.9 0.00 0.00 0.00 60 1010.7
20260506094141 46 316 0.0 0.9 0.00 0.00 0.00 60 1010.5
20260506093640 46 348 0.9 0.9 0.00 0.00 0.00 60 1010.4
20260506093137 46 280 1.7 1.7 0.00 0.00 0.00 59 1010.4
20260506092634 46 335 1.7 1.7 0.00 0.00 0.00 59 1010.0
20260506092131 46 279 0.0 0.9 0.00 0.00 0.00 60 1010.3
20260506091629 46 356 0.9 2.6 0.00 0.00 0.00 60 1010.2
20260506091126 46 274 0.9 0.9 0.00 0.00 0.00 60 1010.5
20260506090625 46 281 0.0 0.9 0.00 0.00 0.00 60 1010.6
20260506090120 46 311 2.6 2.6 0.00 0.00 0.00 60 1010.3
20260506085617 46 344 0.9 0.9 0.00 0.00 0.00 60 1010.1
20260506085114 46 339 0.9 1.7 0.00 0.00 0.00 61 1010.4
20260506084610 46 277 0.9 0.9 0.00 0.00 0.00 60 1010.1
20260506084107 46 289 0.9 0.9 0.00 0.00 0.00 60 1010.0
20260506083604 46 255 0.0 0.0 0.00 0.00 0.00 61 1010.1
20260506083102 46 55 1.7 1.7 0.00 0.00 0.00 60 1010.1
20260506082558 46 293 0.0 0.0 0.00 0.00 0.00 61 1010.3
20260506082054 46 266 0.0 0.9 0.00 0.00 0.00 59 1010.2
20260506081552 46 314 1.7 1.7 0.00 0.00 0.00 60 1010.2
20260506081049 46 218 0.9 1.7 0.00 0.00 0.00 60 1010.3
20260506080547 46 296 0.0 0.9 0.00 0.00 0.00 60 1010.2
20260506073027 47 285 0.9 0.9 0.00 0.00 0.00 59 1010.1
20260506072525 47 297 0.9 0.9 0.00 0.00 0.00 59 1010.2
20260506072022 47 270 0.0 0.9 0.00 0.00 0.00 59 1010.2
20260506071520 47 300 0.9 0.9 0.00 0.00 0.00 58 1010.0
20260506071017 47 342 0.9 0.9 0.00 0.00 0.00 58 1009.9
20260506070514 47 270 0.0 0.0 0.00 0.00 0.00 58 1010.2
20260506062451 47 315 0.9 0.9 0.00 0.00 0.00 60 1010.2
20260506061948 48 255 0.0 0.9 0.00 0.00 0.00 60 1010.3
20260506061444 48 42 1.7 1.7 0.00 0.00 0.00 60 1010.1
20260506060942 48 338 0.9 0.9 0.00 0.00 0.00 59 1010.2
20260506060440 48 36 1.7 1.7 0.00 0.00 0.00 59 1010.5
20260506051406 48 262 0.0 0.0 0.00 0.00 0.00 60 1010.0
20260506050903 48 324 0.0 0.0 0.00 0.00 0.00 60 1010.1
20260506050401 48 280 0.0 0.0 0.00 0.00 0.00 60 1010.3
20260506044851 48 253 0.0 0.0 0.00 0.00 0.00 60 1010.5
20260506044349 48 53 1.7 1.7 0.00 0.00 0.00 60 1010.4
20260506043846 48 281 0.0 0.0 0.00 0.00 0.00 60 1010.3
20260506043343 48 243 0.0 0.9 0.00 0.00 0.00 60 1010.1
20260506042841 49 283 0.0 0.0 0.00 0.00 0.00 59 1010.2
20260506042340 48 315 1.7 1.7 0.00 0.00 0.00 59 1010.3
20260506041839 48 282 0.0 0.9 0.00 0.00 0.00 59 1010.1
20260506041335 48 290 0.0 0.9 0.00 0.00 0.00 60 1010.2
20260506040832 48 261 0.0 0.0 0.00 0.00 0.00 61 1010.1
20260506040330 49 267 0.0 0.0 0.00 0.00 0.00 60 1009.9
20260506035826 48 322 0.9 0.9 0.00 0.07 0.07 60 1010.0
20260506035323 49 281 0.0 0.0 0.00 0.07 0.07 60 1010.2
20260506034820 49 262 0.0 0.0 0.00 0.07 0.07 58 1010.1
20260506034318 49 37 0.9 0.9 0.00 0.07 0.07 59 1009.9
20260506033814 49 267 0.0 0.0 0.00 0.07 0.07 59 1010.2
20260506033311 49 275 0.0 0.0 0.00 0.07 0.07 59 1009.9
20260506032808 49 267 0.0 0.0 0.00 0.07 0.07 57 1009.9
20260506032306 49 264 0.0 0.0 0.00 0.07 0.07 58 1010.0
20260506031802 49 270 0.0 0.0 0.00 0.07 0.07 57 1010.2
20260506031259 49 273 0.9 0.9 0.00 0.07 0.07 56 1010.1
20260506030757 49 42 0.9 0.9 0.00 0.07 0.07 57 1010.2
20260506030255 49 8 0.9 0.9 0.00 0.07 0.07 57 1010.3
20260506025751 49 306 0.9 0.9 0.00 0.07 0.07 56 1010.3
20260506025248 49 264 0.0 0.9 0.00 0.07 0.07 56 1010.2
20260506024744 49 263 0.0 0.0 0.00 0.07 0.07 56 1009.9
20260506024241 49 288 0.9 0.9 0.00 0.07 0.07 55 1010.0
20260506023737 49 298 0.9 0.9 0.00 0.07 0.07 56 1010.2
20260506023234 49 274 0.0 0.9 0.00 0.07 0.07 55 1010.3
20260506022731 50 320 0.0 0.9 0.00 0.07 0.07 54 1010.3
20260506022229 50 313 0.9 0.9 0.00 0.07 0.07 54 1010.2
20260506021726 50 324 0.9 0.9 0.00 0.07 0.07 54 1009.9
20260506021223 50 2 0.9 0.9 0.00 0.07 0.07 53 1009.8
20260506020720 50 264 0.0 0.0 0.00 0.07 0.07 53 1009.9
20260506020218 50 314 0.9 0.9 0.00 0.07 0.07 54 1010.0
20260506015716 50 38 1.7 1.7 0.00 0.07 0.07 52 1010.2
20260506015213 50 301 0.9 0.9 0.00 0.07 0.07 53 1010.1
20260506014710 50 313 0.9 0.9 0.00 0.07 0.07 52 1010.0
20260506014205 50 269 0.9 0.9 0.00 0.07 0.07 53 1009.8
20260506013703 50 277 0.0 0.0 0.00 0.07 0.07 53 1009.6
20260506013200 50 338 0.9 0.9 0.00 0.07 0.07 52 1009.9
20260506012656 50 59 0.9 0.9 0.00 0.07 0.07 52 1009.6
20260506012153 50 262 0.0 0.0 0.00 0.07 0.07 51 1009.4
20260506011651 50 358 0.0 0.9 0.00 0.07 0.07 51 1009.6
20260506011147 50 277 0.0 0.9 0.00 0.07 0.07 51 1009.6
20260506010646 50 257 0.0 0.0 0.00 0.07 0.07 51 1009.3
20260506010142 51 36 1.7 1.7 0.00 0.07 0.07 50 1009.5
20260506005639 51 51 0.9 0.9 0.00 0.07 0.07 51 1009.5
20260506005137 51 252 1.7 1.7 0.00 0.07 0.07 50 1009.7
20260506004633 51 333 0.9 0.9 0.00 0.07 0.07 50 1009.4
20260506004130 51 249 0.0 0.9 0.00 0.07 0.07 50 1009.5
20260506003627 51 272 0.9 1.7 0.00 0.07 0.07 49 1009.7
20260506003123 51 38 0.9 0.9 0.00 0.07 0.07 50 1009.6
20260506002619 51 354 0.9 0.9 0.00 0.07 0.07 48 1009.6
20260506002115 51 51 1.7 1.7 0.00 0.07 0.07 47 1009.6
20260506001611 51 59 1.7 1.7 0.00 0.07 0.07 47 1009.7
20260506001108 51 274 2.6 2.6 0.00 0.07 0.07 47 1009.4
20260506000606 52 238 1.7 1.7 0.00 0.07 0.07 48 1009.5
20260505235601 52 249 0.9 0.9 0.00 0.07 0.07 49 1009.4
20260505235058 52 39 0.9 0.9 0.00 0.07 0.07 47 1009.5
20260505234555 52 102 1.7 1.7 0.00 0.07 0.07 48 1009.3
20260505234051 52 254 0.9 1.7 0.00 0.07 0.07 47 1009.0
20260505233549 53 265 0.0 0.9 0.00 0.07 0.07 46 1008.7
20260505233046 53 22 2.6 2.6 0.00 0.07 0.07 45 1009.2
20260505232544 53 54 1.7 1.7 0.00 0.07 0.07 45 1008.8
20260505232041 53 1 1.7 1.7 0.00 0.07 0.07 45 1008.9
20260505231538 53 324 0.0 0.9 0.00 0.07 0.07 46 1008.9
20260505231037 53 72 1.7 2.6 0.00 0.07 0.07 46 1008.7
20260505230534 53 275 1.7 1.7 0.00 0.07 0.07 46 1008.9
20260505230030 53 18 0.9 0.9 0.00 0.07 0.07 51 1008.7
20260505225527 54 27 2.6 2.6 0.00 0.07 0.07 51 1008.9
20260505225023 54 22 1.7 1.7 0.00 0.07 0.07 51 1008.9
20260505224520 54 22 0.9 0.9 0.00 0.07 0.07 51 1008.9
20260505224017 54 232 0.0 0.9 0.00 0.07 0.07 52 1009.0
20260505223514 54 253 0.9 0.9 0.00 0.07 0.07 50 1009.0
20260505223010 54 253 0.0 0.0 0.00 0.07 0.07 53 1009.0
20260505222507 54 295 0.9 0.9 0.00 0.07 0.07 51 1009.0
20260505222003 54 347 0.9 1.7 0.00 0.07 0.07 52 1009.3
20260505221500 54 266 0.9 0.9 0.00 0.07 0.07 51 1009.2
20260505220957 54 327 3.5 6.1 0.00 0.07 0.07 51 1009.2
20260505220454 54 332 1.7 2.6 0.00 0.07 0.07 50 1008.9
20260505215951 54 34 1.7 1.7 0.00 0.07 0.07 51 1008.8
20260505215450 55 276 0.9 1.7 0.00 0.07 0.07 51 1008.9
20260505214947 54 354 0.0 0.9 0.00 0.07 0.07 54 1008.8
20260505214445 54 77 1.7 1.7 0.00 0.07 0.07 53 1008.9
20260505213942 54 67 2.6 2.6 0.00 0.07 0.07 54 1008.8
20260505213439 54 324 0.9 0.9 0.00 0.07 0.07 53 1009.2
20260505212935 54 38 4.3 6.1 0.00 0.07 0.07 51 1009.2
20260505212432 54 303 0.9 1.7 0.00 0.07 0.07 52 1008.9
20260505211928 55 355 2.6 2.6 0.00 0.07 0.07 56 1009.0
20260505211426 55 63 1.7 1.7 0.00 0.07 0.07 58 1008.8
20260505210922 55 330 0.9 0.9 0.00 0.07 0.07 60 1008.8
20260505210423 55 54 2.6 4.3 0.00 0.07 0.07 59 1008.8
20260505205916 55 53 5.2 7.8 0.00 0.07 0.07 60 1009.0
20260505205415 55 62 2.6 4.3 0.00 0.07 0.07 60 1009.3
20260505204911 55 42 1.7 2.6 0.00 0.07 0.07 61 1009.0
20260505204409 55 22 0.9 0.9 0.00 0.07 0.07 61 1009.2
20260505203906 55 264 0.9 1.7 0.00 0.07 0.07 61 1009.4
20260505203402 55 105 3.5 5.2 0.00 0.07 0.07 60 1009.3
20260505202859 55 44 2.6 2.6 0.00 0.07 0.07 60 1009.3
20260505202355 55 331 0.9 0.9 0.00 0.07 0.07 61 1008.9
20260505201852 55 33 2.6 2.6 0.00 0.07 0.07 62 1009.0
20260505201349 55 18 2.6 2.6 0.00 0.07 0.07 61 1008.7
20260505200847 55 14 1.7 1.7 0.00 0.07 0.07 62 1008.7
20260505200344 55 252 0.0 0.0 0.00 0.07 0.07 64 1008.8
20260505195839 55 281 0.9 0.9 0.00 0.07 0.07 61 1008.9